Time,TemperatureF,DewpointF,PressureIn,WindDirection,WindDirectionDegrees,WindSpeedMPH,WindSpeedGustMPH,Humidity,HourlyPrecipIn,Conditions,Clouds,dailyrainin,SoftwareType,DateUTC
2013-06-05 00:00:00,63.1,16.2,29.12,ENE,76,5.0,6.0,16,0.00,CLR,,0.00,WeatherDisplay:10.37,2013-06-05 04:00:00,
2013-06-05 00:05:00,63.0,16.0,29.12,ENE,73,5.0,6.0,16,0.00,CLR,,0.00,WeatherDisplay:10.37,2013-06-05 04:05:00,
2013-06-05 00:10:00,62.8,15.9,29.12,ENE,74,5.0,6.0,16,0.00,CLR,,0.00,WeatherDisplay:10.37,2013-06-05 04:10:00,
2013-06-05 00:15:00,62.6,15.7,29.12,East,82,5.0,6.0,16,0.00,CLR,,0.00,WeatherDisplay:10.37,2013-06-05 04:15:00,
2013-06-05 00:20:00,62.4,15.6,29.12,ENE,74,5.0,6.0,16,0.00,CLR,,0.00,WeatherDisplay:10.37,2013-06-05 04:20:00,
2013-06-05 00:25:00,62.4,15.5,29.12,ENE,72,3.0,6.0,16,0.00,CLR,,0.00,WeatherDisplay:10.37,2013-06-05 04:25:00,
2013-06-05 00:30:00,62.2,15.4,29.12,East,85,3.0,5.0,16,0.00,CLR,,0.00,WeatherDisplay:10.37,2013-06-05 04:30:00,
2013-06-05 00:35:00,62.1,15.3,29.12,East,81,5.0,6.0,16,0.00,CLR,,0.00,WeatherDisplay:10.37,2013-06-05 04:35:00,
2013-06-05 00:40:00,61.9,15.1,29.12,East,82,6.0,8.0,16,0.00,CLR,,0.00,WeatherDisplay:10.37,2013-06-05 04:40:00,
2013-06-05 00:45:00,61.9,15.1,29.12,East,84,5.0,6.0,16,0.00,CLR,,0.00,WeatherDisplay:10.37,2013-06-05 04:45:00,
2013-06-05 00:50:00,61.7,15.0,29.12,East,81,3.0,6.0,16,0.00,CLR,,0.00,WeatherDisplay:10.37,2013-06-05 04:50:00,
2013-06-05 00:55:00,61.7,15.0,29.12,East,81,5.0,6.0,16,0.00,CLR,,0.00,WeatherDisplay:10.37,2013-06-05 04:55:00,
2013-06-05 01:00:00,61.5,14.8,29.12,East,81,5.0,8.0,16,0.00,CLR,,0.00,WeatherDisplay:10.37,2013-06-05 05:00:00,
2013-06-05 01:05:00,61.3,14.7,29.12,East,86,3.0,6.0,16,0.00,CLR,,0.00,WeatherDisplay:10.37,2013-06-05 05:05:00,
2013-06-05 01:15:00,61.2,14.6,29.12,East,88,3.0,6.0,16,0.00,CLR,,0.00,WeatherDisplay:10.37,2013-06-05 05:15:00,
2013-06-05 01:20:00,61.2,14.5,29.12,East,87,3.0,6.0,16,0.00,CLR,,0.00,WeatherDisplay:10.37,2013-06-05 05:20:00,
2013-06-05 01:25:00,61.0,14.4,29.12,East,87,2.0,4.0,16,0.00,CLR,,0.00,WeatherDisplay:10.37,2013-06-05 05:25:00,
2013-06-05 01:35:00,60.8,14.3,29.12,East,87,2.0,4.0,16,0.00,CLR,,0.00,WeatherDisplay:10.37,2013-06-05 05:35:00,
2013-06-05 01:40:00,60.6,15.5,29.12,East,89,3.0,5.0,17,0.00,CLR,,0.00,WeatherDisplay:10.37,2013-06-05 05:40:00,
2013-06-05 01:45:00,60.6,15.5,29.12,East,92,3.0,5.0,17,0.00,CLR,,0.00,WeatherDisplay:10.37,2013-06-05 05:45:00,
2013-06-05 01:50:00,60.4,15.3,29.12,East,89,2.0,4.0,17,0.00,CLR,,0.00,WeatherDisplay:10.37,2013-06-05 05:50:00,
2013-06-05 01:55:00,60.2,15.2,29.12,East,85,2.0,4.0,17,0.00,CLR,,0.00,WeatherDisplay:10.37,2013-06-05 05:55:00,
2013-06-05 02:00:00,60.1,15.1,29.12,East,84,3.0,5.0,17,0.00,CLR,,0.00,WeatherDisplay:10.37,2013-06-05 06:00:00,
2013-06-05 02:05:00,60.1,15.1,29.12,East,85,3.0,6.0,17,0.00,CLR,,0.00,WeatherDisplay:10.37,2013-06-05 06:05:00,
2013-06-05 02:10:00,60.1,15.1,29.12,East,84,3.0,6.0,17,0.00,CLR,,0.00,WeatherDisplay:10.37,2013-06-05 06:10:00,
2013-06-05 02:15:00,60.1,15.1,29.12,East,81,3.0,5.0,17,0.00,CLR,,0.00,WeatherDisplay:10.37,2013-06-05 06:15:00,
2013-06-05 02:20:00,60.1,15.1,29.12,East,86,3.0,6.0,17,0.00,CLR,,0.00,WeatherDisplay:10.37,2013-06-05 06:20:00,
2013-06-05 02:25:00,60.1,15.1,29.12,East,87,5.0,6.0,17,0.00,CLR,,0.00,WeatherDisplay:10.37,2013-06-05 06:25:00,
2013-06-05 02:30:00,59.9,14.9,29.12,East,82,2.0,4.0,17,0.00,CLR,,0.00,WeatherDisplay:10.37,2013-06-05 06:30:00,
2013-06-05 02:35:00,59.7,14.8,29.12,East,90,3.0,5.0,17,0.00,CLR,,0.00,WeatherDisplay:10.37,2013-06-05 06:35:00,
2013-06-05 02:45:00,59.5,14.6,29.12,East,87,3.0,6.0,17,0.00,CLR,,0.00,WeatherDisplay:10.37,2013-06-05 06:45:00,
2013-06-05 02:50:00,59.4,14.5,29.12,East,91,3.0,7.0,17,0.00,CLR,,0.00,WeatherDisplay:10.37,2013-06-05 06:50:00,
2013-06-05 02:55:00,59.2,14.3,29.12,East,89,3.0,6.0,17,0.00,CLR,,0.00,WeatherDisplay:10.37,2013-06-05 06:55:00,
2013-06-05 03:00:00,59.0,14.2,29.12,East,86,2.0,4.0,17,0.00,CLR,,0.00,WeatherDisplay:10.37,2013-06-05 07:00:00,
2013-06-05 03:05:00,58.8,14.0,29.12,East,84,2.0,4.0,17,0.00,CLR,,0.00,WeatherDisplay:10.37,2013-06-05 07:05:00,
2013-06-05 03:10:00,58.8,14.0,29.12,East,83,3.0,5.0,17,0.00,CLR,,0.00,WeatherDisplay:10.37,2013-06-05 07:10:00,
2013-06-05 03:15:00,58.6,13.9,29.12,East,87,3.0,6.0,17,0.00,CLR,,0.00,WeatherDisplay:10.37,2013-06-05 07:15:00,
2013-06-05 03:20:00,58.5,13.7,29.12,East,90,2.0,6.0,17,0.00,CLR,,0.00,WeatherDisplay:10.37,2013-06-05 07:20:00,
2013-06-05 03:30:00,58.3,13.6,29.09,East,81,3.0,5.0,17,0.00,CLR,,0.00,WeatherDisplay:10.37,2013-06-05 07:30:00,
2013-06-05 03:35:00,58.3,13.6,29.09,ENE,78,2.0,4.0,17,0.00,CLR,,0.00,WeatherDisplay:10.37,2013-06-05 07:35:00,
2013-06-05 03:40:00,58.1,13.4,29.09,East,82,2.0,4.0,17,0.00,CLR,,0.00,WeatherDisplay:10.37,2013-06-05 07:40:00,
2013-06-05 03:45:00,57.9,13.3,29.09,East,88,3.0,5.0,17,0.00,CLR,,0.00,WeatherDisplay:10.37,2013-06-05 07:45:00,
2013-06-05 03:50:00,57.9,13.3,29.09,East,86,3.0,6.0,17,0.00,CLR,,0.00,WeatherDisplay:10.37,2013-06-05 07:50:00,
2013-06-05 03:55:00,57.9,13.3,29.09,East,87,3.0,6.0,17,0.00,CLR,,0.00,WeatherDisplay:10.37,2013-06-05 07:55:00,
2013-06-05 04:00:00,57.7,13.2,29.09,East,89,3.0,6.0,17,0.00,CLR,,0.00,WeatherDisplay:10.37,2013-06-05 08:00:00,
2013-06-05 04:05:00,57.7,13.1,29.09,East,87,5.0,6.0,17,0.00,CLR,,0.00,WeatherDisplay:10.37,2013-06-05 08:05:00,
2013-06-05 04:10:00,57.7,13.2,29.09,East,91,5.0,6.0,17,0.00,CLR,,0.00,WeatherDisplay:10.37,2013-06-05 08:10:00,
2013-06-05 04:15:00,57.7,13.2,29.09,East,92,3.0,6.0,17,0.00,CLR,,0.00,WeatherDisplay:10.37,2013-06-05 08:15:00,
2013-06-05 04:20:00,57.7,13.2,29.09,East,86,3.0,6.0,17,0.00,CLR,,0.00,WeatherDisplay:10.37,2013-06-05 08:20:00,
2013-06-05 04:25:00,57.6,13.0,29.09,East,83,3.0,6.0,17,0.00,CLR,,0.00,WeatherDisplay:10.37,2013-06-05 08:25:00,
2013-06-05 04:30:00,57.6,13.0,29.09,East,85,3.0,6.0,17,0.00,CLR,,0.00,WeatherDisplay:10.37,2013-06-05 08:30:00,
2013-06-05 04:35:00,57.6,13.0,29.09,East,84,3.0,6.0,17,0.00,CLR,,0.00,WeatherDisplay:10.37,2013-06-05 08:35:00,
2013-06-05 04:40:00,57.5,12.9,29.09,ENE,76,3.0,6.0,17,0.00,CLR,,0.00,WeatherDisplay:10.37,2013-06-05 08:40:00,
2013-06-05 04:45:00,57.4,12.9,29.09,ENE,71,2.0,4.0,17,0.00,CLR,,0.00,WeatherDisplay:10.37,2013-06-05 08:45:00,
2013-06-05 04:50:00,57.1,12.6,29.09,ENE,74,3.0,4.0,17,0.00,CLR,,0.00,WeatherDisplay:10.37,2013-06-05 08:50:00,
2013-06-05 04:55:00,56.8,12.4,29.09,ENE,76,3.0,6.0,17,0.00,CLR,,0.00,WeatherDisplay:10.37,2013-06-05 08:55:00,
2013-06-05 05:00:00,56.8,12.4,29.09,ENE,76,3.0,4.0,17,0.00,CLR,,0.00,WeatherDisplay:10.37,2013-06-05 09:00:00,
2013-06-05 05:05:00,56.7,12.3,29.09,ENE,78,3.0,4.0,17,0.00,CLR,,0.00,WeatherDisplay:10.37,2013-06-05 09:05:00,
2013-06-05 05:10:00,56.7,12.3,29.09,East,83,1.0,4.0,17,0.00,CLR,,0.00,WeatherDisplay:10.37,2013-06-05 09:10:00,
2013-06-05 05:15:00,56.5,12.1,29.09,East,87,2.0,5.0,17,0.00,CLR,,0.00,WeatherDisplay:10.37,2013-06-05 09:15:00,
2013-06-05 05:20:00,56.5,12.1,29.09,East,81,0.0,3.0,17,0.00,CLR,,0.00,WeatherDisplay:10.37,2013-06-05 09:20:00,
2013-06-05 05:25:00,56.3,12.0,29.09,ENE,75,0.0,3.0,17,0.00,CLR,,0.00,WeatherDisplay:10.37,2013-06-05 09:25:00,
2013-06-05 05:30:00,56.1,11.8,29.09,ENE,73,1.0,4.0,17,0.00,CLR,,0.00,WeatherDisplay:10.37,2013-06-05 09:30:00,
2013-06-05 05:35:00,55.9,11.7,29.09,ENE,66,1.0,4.0,17,0.00,CLR,,0.00,WeatherDisplay:10.37,2013-06-05 09:35:00,
2013-06-05 05:40:00,55.8,11.5,29.09,ENE,72,2.0,3.0,17,0.00,CLR,,0.00,WeatherDisplay:10.37,2013-06-05 09:40:00,
2013-06-05 05:45:00,55.6,11.4,29.09,East,83,2.0,4.0,17,0.00,CLR,,0.00,WeatherDisplay:10.37,2013-06-05 09:45:00,
2013-06-05 05:50:00,55.6,11.4,29.09,ENE,77,2.0,4.0,17,0.00,CLR,,0.00,WeatherDisplay:10.37,2013-06-05 09:50:00,
2013-06-05 05:55:00,55.6,11.4,29.09,ENE,77,2.0,4.0,17,0.00,CLR,,0.00,WeatherDisplay:10.37,2013-06-05 09:55:00,
2013-06-05 06:00:00,55.8,11.5,29.09,East,84,2.0,4.0,17,0.00,CLR,,0.00,WeatherDisplay:10.37,2013-06-05 10:00:00,
2013-06-05 06:05:00,55.6,11.4,29.09,ENE,78,1.0,3.0,17,0.00,CLR,,0.00,WeatherDisplay:10.37,2013-06-05 10:05:00,
2013-06-05 06:10:00,55.6,11.4,29.09,East,81,0.0,3.0,17,0.00,CLR,,0.00,WeatherDisplay:10.37,2013-06-05 10:10:00,
2013-06-05 06:15:00,55.4,11.2,29.09,East,85,0.0,3.0,17,0.00,CLR,,0.00,WeatherDisplay:10.37,2013-06-05 10:15:00,
2013-06-05 06:20:00,55.2,12.4,29.09,ENE,73,0.0,4.0,18,0.00,CLR,,0.00,WeatherDisplay:10.37,2013-06-05 10:20:00,
2013-06-05 06:25:00,55.2,12.4,29.09,ENE,65,1.0,4.0,18,0.00,CLR,,0.00,WeatherDisplay:10.37,2013-06-05 10:25:00,
2013-06-05 06:30:00,55.2,12.4,29.09,ENE,64,2.0,4.0,18,0.00,CLR,,0.00,WeatherDisplay:10.37,2013-06-05 10:30:00,
2013-06-05 06:35:00,55.2,12.4,29.09,ENE,65,0.0,4.0,18,0.00,CLR,,0.00,WeatherDisplay:10.37,2013-06-05 10:35:00,
2013-06-05 06:40:00,55.8,11.5,29.11,ENE,66,0.0,4.0,17,0.00,CLR,,0.00,WeatherDisplay:10.37,2013-06-05 10:40:00,
2013-06-05 06:45:00,55.8,11.5,29.12,ENE,66,0.0,3.0,17,0.00,CLR,,0.00,WeatherDisplay:10.37,2013-06-05 10:45:00,
2013-06-05 06:50:00,56.3,12.0,29.12,ENE,66,0.0,0.0,17,0.00,CLR,,0.00,WeatherDisplay:10.37,2013-06-05 10:50:00,
2013-06-05 06:55:00,57.3,12.8,29.12,ENE,65,0.0,0.0,17,0.00,CLR,,0.00,WeatherDisplay:10.37,2013-06-05 10:55:00,
2013-06-05 07:00:00,58.2,13.5,29.12,ENE,66,2.0,3.0,17,0.00,CLR,,0.00,WeatherDisplay:10.37,2013-06-05 11:00:00,
2013-06-05 07:05:00,59.1,14.3,29.12,ENE,69,2.0,4.0,17,0.00,CLR,,0.00,WeatherDisplay:10.37,2013-06-05 11:05:00,
2013-06-05 07:10:00,59.7,14.8,29.12,ENE,68,2.0,4.0,17,0.00,CLR,,0.00,WeatherDisplay:10.37,2013-06-05 11:10:00,
2013-06-05 07:15:00,60.1,15.1,29.12,ENE,69,2.0,4.0,17,0.00,CLR,,0.00,WeatherDisplay:10.37,2013-06-05 11:15:00,
2013-06-05 07:20:00,59.7,14.8,29.12,East,79,0.0,2.0,17,0.00,CLR,,0.00,WeatherDisplay:10.37,2013-06-05 11:20:00,
2013-06-05 07:25:00,59.1,14.3,29.12,East,85,0.0,0.0,17,0.00,CLR,,0.00,WeatherDisplay:10.37,2013-06-05 11:25:00,
2013-06-05 07:30:00,58.5,13.7,29.12,East,85,0.0,0.0,17,0.00,CLR,,0.00,WeatherDisplay:10.37,2013-06-05 11:30:00,
2013-06-05 07:35:00,58.1,13.4,29.12,East,81,0.0,3.0,17,0.00,CLR,,0.00,WeatherDisplay:10.37,2013-06-05 11:35:00,
2013-06-05 07:40:00,57.9,13.3,29.12,ENE,73,0.0,0.0,17,0.00,CLR,,0.00,WeatherDisplay:10.37,2013-06-05 11:40:00,
2013-06-05 07:45:00,58.0,13.4,29.12,ENE,70,2.0,4.0,17,0.00,CLR,,0.00,WeatherDisplay:10.37,2013-06-05 11:45:00,
2013-06-05 07:50:00,58.4,13.7,29.12,ENE,64,2.0,5.0,17,0.00,CLR,,0.00,WeatherDisplay:10.37,2013-06-05 11:50:00,
2013-06-05 07:55:00,58.6,13.9,29.12,ENE,63,3.0,6.0,17,0.00,CLR,,0.00,WeatherDisplay:10.37,2013-06-05 11:55:00,
2013-06-05 08:00:00,59.0,14.1,29.12,ENE,65,1.0,6.0,17,0.00,CLR,,0.00,WeatherDisplay:10.37,2013-06-05 12:00:00,
2013-06-05 08:05:00,59.5,14.6,29.12,ENE,66,3.0,4.0,17,0.00,CLR,,0.00,WeatherDisplay:10.37,2013-06-05 12:05:00,
2013-06-05 08:10:00,60.2,15.1,29.12,ENE,65,3.0,7.0,17,0.00,CLR,,0.00,WeatherDisplay:10.37,2013-06-05 12:10:00,
2013-06-05 08:15:00,61.2,14.6,29.12,ENE,64,5.0,6.0,16,0.00,CLR,,0.00,WeatherDisplay:10.37,2013-06-05 12:15:00,
2013-06-05 08:20:00,62.2,15.4,29.12,ENE,68,3.0,6.0,16,0.00,CLR,,0.00,WeatherDisplay:10.37,2013-06-05 12:20:00,
2013-06-05 08:25:00,61.4,14.7,29.12,ENE,76,3.0,6.0,16,0.00,CLR,,0.00,WeatherDisplay:10.37,2013-06-05 12:25:00,
2013-06-05 08:30:00,61.5,14.8,29.12,ENE,72,3.0,6.0,16,0.00,CLR,,0.00,WeatherDisplay:10.37,2013-06-05 12:30:00,
2013-06-05 08:35:00,62.2,15.4,29.12,ENE,67,3.0,6.0,16,0.00,CLR,,0.00,WeatherDisplay:10.37,2013-06-05 12:35:00,
2013-06-05 08:40:00,61.9,15.1,29.12,ENE,77,5.0,6.0,16,0.00,CLR,,0.00,WeatherDisplay:10.37,2013-06-05 12:40:00,
2013-06-05 08:45:00,62.7,15.8,29.12,ENE,74,3.0,6.0,16,0.00,CLR,,0.00,WeatherDisplay:10.37,2013-06-05 12:45:00,
2013-06-05 08:50:00,63.3,16.3,29.12,ENE,74,3.0,6.0,16,0.00,CLR,,0.00,WeatherDisplay:10.37,2013-06-05 12:50:00,
2013-06-05 08:55:00,63.9,16.8,29.09,ENE,78,3.0,6.0,16,0.00,CLR,,0.00,WeatherDisplay:10.37,2013-06-05 12:55:00,
2013-06-05 09:00:00,64.2,17.0,29.09,East,82,3.0,6.0,16,0.00,CLR,,0.00,WeatherDisplay:10.37,2013-06-05 13:00:00,
2013-06-05 09:05:00,64.4,15.7,29.09,East,80,5.0,8.0,15,0.00,CLR,,0.00,WeatherDisplay:10.37,2013-06-05 13:05:00,
2013-06-05 09:10:00,64.6,15.8,29.09,ENE,77,3.0,6.0,15,0.00,CLR,,0.00,WeatherDisplay:10.37,2013-06-05 13:10:00,
2013-06-05 09:15:00,64.9,16.1,29.09,ENE,74,3.0,6.0,15,0.00,CLR,,0.00,WeatherDisplay:10.37,2013-06-05 13:15:00,
2013-06-05 09:20:00,65.5,16.5,29.09,East,80,5.0,6.0,15,0.00,CLR,,0.00,WeatherDisplay:10.37,2013-06-05 13:20:00,
2013-06-05 09:25:00,65.6,16.6,29.09,East,81,3.0,6.0,15,0.00,CLR,,0.00,WeatherDisplay:10.37,2013-06-05 13:25:00,
2013-06-05 09:35:00,66.2,17.1,29.09,ENE,74,5.0,6.0,15,0.00,CLR,,0.00,WeatherDisplay:10.37,2013-06-05 13:35:00,
2013-06-05 09:40:00,66.6,17.4,29.09,ENE,70,5.0,6.0,15,0.00,CLR,,0.00,WeatherDisplay:10.37,2013-06-05 13:40:00,
2013-06-05 09:45:00,66.7,17.6,29.09,ENE,76,3.0,6.0,15,0.00,CLR,,0.00,WeatherDisplay:10.37,2013-06-05 13:45:00,
2013-06-05 09:50:00,66.8,17.6,29.09,East,84,5.0,6.0,15,0.00,CLR,,0.00,WeatherDisplay:10.37,2013-06-05 13:50:00,
2013-06-05 09:55:00,67.0,17.8,29.09,ENE,76,3.0,6.0,15,0.00,CLR,,0.00,WeatherDisplay:10.37,2013-06-05 13:55:00,
2013-06-05 10:00:00,67.6,18.3,29.09,ENE,75,3.0,6.0,15,0.00,CLR,,0.00,WeatherDisplay:10.37,2013-06-05 14:00:00,
2013-06-05 10:05:00,67.8,18.4,29.09,ENE,75,6.0,9.0,15,0.00,CLR,,0.00,WeatherDisplay:10.37,2013-06-05 14:05:00,
2013-06-05 10:10:00,68.2,18.7,29.09,ENE,68,5.0,9.0,15,0.00,CLR,,0.00,WeatherDisplay:10.37,2013-06-05 14:10:00,
2013-06-05 10:15:00,68.7,19.1,29.09,ENE,71,5.0,7.0,15,0.00,CLR,,0.00,WeatherDisplay:10.37,2013-06-05 14:15:00,
2013-06-05 10:20:00,69.2,22.5,29.09,ENE,72,5.0,6.0,17,0.00,CLR,,0.00,WeatherDisplay:10.37,2013-06-05 14:20:00,
2013-06-05 10:25:00,69.6,22.8,29.09,ENE,77,3.0,6.0,17,0.00,CLR,,0.00,WeatherDisplay:10.37,2013-06-05 14:25:00,
2013-06-05 10:30:00,69.8,23.0,29.09,ENE,75,5.0,6.0,17,0.00,CLR,,0.00,WeatherDisplay:10.37,2013-06-05 14:30:00,
2013-06-05 10:40:00,70.2,23.3,29.08,ENE,74,5.0,6.0,17,0.00,CLR,,0.00,WeatherDisplay:10.37,2013-06-05 14:40:00,
2013-06-05 10:45:00,70.5,23.6,29.06,ENE,67,3.0,6.0,17,0.00,CLR,,0.00,WeatherDisplay:10.37,2013-06-05 14:45:00,
2013-06-05 10:50:00,70.9,23.9,29.06,ENE,75,5.0,6.0,17,0.00,CLR,,0.00,WeatherDisplay:10.37,2013-06-05 14:50:00,
2013-06-05 10:55:00,71.4,24.3,29.06,ENE,72,3.0,6.0,17,0.00,CLR,,0.00,WeatherDisplay:10.37,2013-06-05 14:55:00,
2013-06-05 11:05:00,71.6,23.0,29.06,ENE,67,5.0,6.0,16,0.00,CLR,,0.00,WeatherDisplay:10.37,2013-06-05 15:05:00,
2013-06-05 11:10:00,72.0,23.3,29.06,ENE,61,5.0,6.0,16,0.00,CLR,,0.00,WeatherDisplay:10.37,2013-06-05 15:10:00,
2013-06-05 11:15:00,72.1,23.4,29.06,ENE,62,5.0,8.0,16,0.00,CLR,,0.00,WeatherDisplay:10.37,2013-06-05 15:15:00,
2013-06-05 11:20:00,72.0,23.3,29.06,ENE,72,3.0,6.0,16,0.00,CLR,,0.00,WeatherDisplay:10.37,2013-06-05 15:20:00,
2013-06-05 11:25:00,72.1,23.4,29.06,East,86,5.0,6.0,16,0.00,CLR,,0.00,WeatherDisplay:10.37,2013-06-05 15:25:00,
2013-06-05 11:30:00,72.6,23.8,29.06,East,83,5.0,6.0,16,0.00,CLR,,0.00,WeatherDisplay:10.37,2013-06-05 15:30:00,
2013-06-05 11:35:00,73.1,24.2,29.06,East,87,3.0,6.0,16,0.00,CLR,,0.00,WeatherDisplay:10.37,2013-06-05 15:35:00,
2013-06-05 11:40:00,73.6,24.6,29.06,ENE,75,2.0,6.0,16,0.00,CLR,,0.00,WeatherDisplay:10.37,2013-06-05 15:40:00,
2013-06-05 11:45:00,73.8,24.7,29.06,ENE,68,3.0,6.0,16,0.00,CLR,,0.00,WeatherDisplay:10.37,2013-06-05 15:45:00,
2013-06-05 11:50:00,74.3,25.1,29.06,ENE,71,3.0,6.0,16,0.00,CLR,,0.00,WeatherDisplay:10.37,2013-06-05 15:50:00,
2013-06-05 11:55:00,74.5,25.3,29.06,ENE,74,2.0,6.0,16,0.00,CLR,,0.00,WeatherDisplay:10.37,2013-06-05 15:55:00,
2013-06-05 12:00:00,74.5,25.3,29.06,ENE,66,5.0,6.0,16,0.00,CLR,,0.00,WeatherDisplay:10.37,2013-06-05 16:00:00,
2013-06-05 12:05:00,74.6,25.4,29.06,ENE,63,2.0,8.0,16,0.00,CLR,,0.00,WeatherDisplay:10.37,2013-06-05 16:05:00,
2013-06-05 12:10:00,74.8,25.6,29.06,ENE,67,3.0,6.0,16,0.00,CLR,,0.00,WeatherDisplay:10.37,2013-06-05 16:10:00,
2013-06-05 12:15:00,75.0,25.7,29.06,ENE,65,1.0,6.0,16,0.00,CLR,,0.00,WeatherDisplay:10.37,2013-06-05 16:15:00,
2013-06-05 12:20:00,75.6,24.6,29.06,ENE,61,5.0,6.0,15,0.00,CLR,,0.00,WeatherDisplay:10.37,2013-06-05 16:20:00,
2013-06-05 12:25:00,75.4,24.5,29.06,ENE,72,3.0,9.0,15,0.00,CLR,,0.00,WeatherDisplay:10.37,2013-06-05 16:25:00,
2013-06-05 12:30:00,75.2,24.3,29.06,ENE,70,3.0,8.0,15,0.00,CLR,,0.00,WeatherDisplay:10.37,2013-06-05 16:30:00,
2013-06-05 12:35:00,75.7,24.8,29.06,East,91,3.0,6.0,15,0.00,CLR,,0.00,WeatherDisplay:10.37,2013-06-05 16:35:00,
2013-06-05 12:45:00,76.5,25.3,29.06,East,88,0.0,6.0,15,0.00,CLR,,0.00,WeatherDisplay:10.37,2013-06-05 16:45:00,
2013-06-05 12:50:00,77.0,25.8,29.06,East,79,2.0,6.0,15,0.00,CLR,,0.00,WeatherDisplay:10.37,2013-06-05 16:50:00,
2013-06-05 12:55:00,77.2,25.9,29.06,East,81,0.0,6.0,15,0.00,CLR,,0.00,WeatherDisplay:10.37,2013-06-05 16:55:00,
2013-06-05 13:00:00,77.2,25.9,29.06,East,100,1.0,6.0,15,0.00,CLR,,0.00,WeatherDisplay:10.37,2013-06-05 17:00:00,
2013-06-05 13:05:00,77.4,26.1,29.06,ESE,108,3.0,6.0,15,0.00,CLR,,0.00,WeatherDisplay:10.37,2013-06-05 17:05:00,
2013-06-05 13:10:00,77.5,26.2,29.06,ENE,72,1.0,5.0,15,0.00,CLR,,0.00,WeatherDisplay:10.37,2013-06-05 17:10:00,
2013-06-05 13:20:00,77.4,26.1,29.06,ENE,70,6.0,8.0,15,0.00,CLR,,0.00,WeatherDisplay:10.37,2013-06-05 17:20:00,
2013-06-05 13:25:00,77.2,25.9,29.06,ENE,71,1.0,6.0,15,0.00,CLR,,0.00,WeatherDisplay:10.37,2013-06-05 17:25:00,
2013-06-05 13:30:00,77.4,26.1,29.06,ENE,69,6.0,8.0,15,0.00,CLR,,0.00,WeatherDisplay:10.37,2013-06-05 17:30:00,
2013-06-05 13:35:00,77.5,26.2,29.06,ENE,66,5.0,8.0,15,0.00,CLR,,0.00,WeatherDisplay:10.37,2013-06-05 17:35:00,
2013-06-05 13:40:00,77.9,26.5,29.06,East,87,2.0,6.0,15,0.00,CLR,,0.00,WeatherDisplay:10.37,2013-06-05 17:40:00,
2013-06-05 13:45:00,78.1,26.6,29.06,East,88,3.0,6.0,15,0.00,CLR,,0.00,WeatherDisplay:10.37,2013-06-05 17:45:00,
2013-06-05 13:50:00,78.3,26.8,29.06,East,87,3.0,4.0,15,0.00,CLR,,0.00,WeatherDisplay:10.37,2013-06-05 17:50:00,
2013-06-05 13:55:00,78.3,26.8,29.04,East,90,5.0,6.0,15,0.00,CLR,,0.00,WeatherDisplay:10.37,2013-06-05 17:55:00,
2013-06-05 14:00:00,78.0,26.6,29.03,ENE,77,3.0,6.0,15,0.00,CLR,,0.00,WeatherDisplay:10.37,2013-06-05 18:00:00,
2013-06-05 14:10:00,78.2,26.7,29.03,ENE,68,3.0,6.0,15,0.00,CLR,,0.00,WeatherDisplay:10.37,2013-06-05 18:10:00,
2013-06-05 14:15:00,78.3,26.8,29.03,East,80,3.0,6.0,15,0.00,CLR,,0.00,WeatherDisplay:10.37,2013-06-05 18:15:00,
2013-06-05 14:20:00,78.8,27.2,29.03,ESE,106,1.0,4.0,15,0.00,CLR,,0.00,WeatherDisplay:10.37,2013-06-05 18:20:00,
2013-06-05 14:25:00,79.2,27.5,29.03,East,99,3.0,6.0,15,0.00,CLR,,0.00,WeatherDisplay:10.37,2013-06-05 18:25:00,
2013-06-05 14:30:00,79.3,27.6,29.03,ENE,70,2.0,6.0,15,0.00,CLR,,0.00,WeatherDisplay:10.37,2013-06-05 18:30:00,
2013-06-05 14:35:00,78.8,27.2,29.03,ENE,76,1.0,6.0,15,0.00,CLR,,0.00,WeatherDisplay:10.37,2013-06-05 18:35:00,
2013-06-05 14:40:00,78.8,27.2,29.03,ENE,74,2.0,5.0,15,0.00,CLR,,0.00,WeatherDisplay:10.37,2013-06-05 18:40:00,
2013-06-05 14:45:00,78.8,27.2,29.03,East,79,3.0,6.0,15,0.00,CLR,,0.00,WeatherDisplay:10.37,2013-06-05 18:45:00,
2013-06-05 14:50:00,78.3,26.8,29.03,ENE,62,0.0,8.0,15,0.00,CLR,,0.00,WeatherDisplay:10.37,2013-06-05 18:50:00,
2013-06-05 14:55:00,78.3,26.8,29.03,ENE,72,5.0,8.0,15,0.00,CLR,,0.00,WeatherDisplay:10.37,2013-06-05 18:55:00,
2013-06-05 15:00:00,78.8,27.2,29.03,East,97,1.0,8.0,15,0.00,CLR,,0.00,WeatherDisplay:10.37,2013-06-05 19:00:00,
2013-06-05 15:05:00,79.3,27.6,29.03,East,98,2.0,6.0,15,0.00,CLR,,0.00,WeatherDisplay:10.37,2013-06-05 19:05:00,
2013-06-05 15:10:00,79.3,27.6,29.00,East,88,3.0,6.0,15,0.00,CLR,,0.00,WeatherDisplay:10.37,2013-06-05 19:10:00,
2013-06-05 15:15:00,79.3,27.6,29.00,ENE,78,3.0,6.0,15,0.00,CLR,,0.00,WeatherDisplay:10.37,2013-06-05 19:15:00,
2013-06-05 15:20:00,79.3,27.6,29.00,ENE,70,0.0,6.0,15,0.00,CLR,,0.00,WeatherDisplay:10.37,2013-06-05 19:20:00,
2013-06-05 15:25:00,79.7,27.9,29.00,ENE,76,0.0,3.0,15,0.00,CLR,,0.00,WeatherDisplay:10.37,2013-06-05 19:25:00,
2013-06-05 15:35:00,80.6,27.0,29.00,ESE,119,3.0,6.0,14,0.00,CLR,,0.00,WeatherDisplay:10.37,2013-06-05 19:35:00,
2013-06-05 15:40:00,81.0,27.3,29.00,East,101,2.0,6.0,14,0.00,CLR,,0.00,WeatherDisplay:10.37,2013-06-05 19:40:00,
2013-06-05 15:45:00,80.6,27.0,29.00,ENE,75,3.0,8.0,14,0.00,CLR,,0.00,WeatherDisplay:10.37,2013-06-05 19:45:00,
2013-06-05 15:50:00,80.8,27.1,29.00,ENE,72,0.0,4.0,14,0.00,CLR,,0.00,WeatherDisplay:10.37,2013-06-05 19:50:00,
2013-06-05 15:55:00,81.1,27.4,29.00,ESE,118,0.0,4.0,14,0.00,CLR,,0.00,WeatherDisplay:10.37,2013-06-05 19:55:00,
2013-06-05 16:00:00,81.5,27.7,29.00,East,94,0.0,6.0,14,0.00,CLR,,0.00,WeatherDisplay:10.37,2013-06-05 20:00:00,
2013-06-05 16:05:00,81.1,27.4,29.00,East,88,2.0,6.0,14,0.00,CLR,,0.00,WeatherDisplay:10.37,2013-06-05 20:05:00,
2013-06-05 16:10:00,80.8,27.1,29.00,East,89,2.0,6.0,14,0.00,CLR,,0.00,WeatherDisplay:10.37,2013-06-05 20:10:00,
2013-06-05 16:15:00,80.9,27.2,29.00,ESE,105,0.0,4.0,14,0.00,CLR,,0.00,WeatherDisplay:10.37,2013-06-05 20:15:00,
2013-06-05 16:20:00,81.5,27.7,29.00,ESE,114,5.0,8.0,14,0.00,CLR,,0.00,WeatherDisplay:10.37,2013-06-05 20:20:00,
2013-06-05 16:25:00,81.1,27.4,29.00,East,85,5.0,6.0,14,0.00,CLR,,0.00,WeatherDisplay:10.37,2013-06-05 20:25:00,
2013-06-05 16:30:00,81.0,27.3,29.00,ENE,76,2.0,5.0,14,0.00,CLR,,0.00,WeatherDisplay:10.37,2013-06-05 20:30:00,
2013-06-05 16:35:00,80.8,27.1,29.00,ENE,66,1.0,5.0,14,0.00,CLR,,0.00,WeatherDisplay:10.37,2013-06-05 20:35:00,
2013-06-05 16:40:00,80.4,28.5,28.97,East,80,1.0,8.0,15,0.00,CLR,,0.00,WeatherDisplay:10.37,2013-06-05 20:40:00,
2013-06-05 16:45:00,80.7,27.0,28.97,East,86,0.0,4.0,14,0.00,CLR,,0.00,WeatherDisplay:10.37,2013-06-05 20:45:00,
2013-06-05 16:50:00,80.6,27.0,28.97,NE,48,0.0,6.0,14,0.00,CLR,,0.00,WeatherDisplay:10.37,2013-06-05 20:50:00,
2013-06-05 16:55:00,80.3,28.4,28.97,NE,56,5.0,6.0,15,0.00,CLR,,0.00,WeatherDisplay:10.37,2013-06-05 20:55:00,
2013-06-05 17:00:00,79.9,28.1,28.97,ENE,73,0.0,6.0,15,0.00,CLR,,0.00,WeatherDisplay:10.37,2013-06-05 21:00:00,
2013-06-05 17:05:00,79.9,28.1,28.97,ENE,72,0.0,6.0,15,0.00,CLR,,0.00,WeatherDisplay:10.37,2013-06-05 21:05:00,
2013-06-05 17:10:00,79.9,28.1,28.97,East,80,3.0,6.0,15,0.00,CLR,,0.00,WeatherDisplay:10.37,2013-06-05 21:10:00,
2013-06-05 17:15:00,80.7,27.1,28.97,ENE,78,2.0,6.0,14,0.00,CLR,,0.00,WeatherDisplay:10.37,2013-06-05 21:15:00,
2013-06-05 17:20:00,81.6,27.8,28.97,ENE,68,3.0,6.0,14,0.00,CLR,,0.00,WeatherDisplay:10.37,2013-06-05 21:20:00,
2013-06-05 17:25:00,81.9,28.0,28.97,ENE,65,2.0,6.0,14,0.00,CLR,,0.00,WeatherDisplay:10.37,2013-06-05 21:25:00,
2013-06-05 17:30:00,82.1,28.2,28.97,ENE,69,0.0,4.0,14,0.00,CLR,,0.00,WeatherDisplay:10.37,2013-06-05 21:30:00,
2013-06-05 17:35:00,81.8,27.9,28.97,ENE,68,5.0,6.0,14,0.00,CLR,,0.00,WeatherDisplay:10.37,2013-06-05 21:35:00,
2013-06-05 17:40:00,80.8,27.2,28.97,ENE,67,3.0,8.0,14,0.00,CLR,,0.00,WeatherDisplay:10.37,2013-06-05 21:40:00,
2013-06-05 17:45:00,80.0,28.2,28.97,ENE,73,3.0,6.0,15,0.00,CLR,,0.00,WeatherDisplay:10.37,2013-06-05 21:45:00,
2013-06-05 17:50:00,78.9,27.3,28.97,ENE,71,3.0,6.0,15,0.00,CLR,,0.00,WeatherDisplay:10.37,2013-06-05 21:50:00,
2013-06-05 17:55:00,78.1,26.7,28.97,ENE,67,5.0,8.0,15,0.00,CLR,,0.00,WeatherDisplay:10.37,2013-06-05 21:55:00,
2013-06-05 18:00:00,78.5,26.9,28.97,ENE,63,3.0,6.0,15,0.00,CLR,,0.00,WeatherDisplay:10.37,2013-06-05 22:00:00,
2013-06-05 18:05:00,79.3,27.6,28.97,ENE,64,3.0,6.0,15,0.00,CLR,,0.00,WeatherDisplay:10.37,2013-06-05 22:05:00,
2013-06-05 18:10:00,79.9,28.1,28.97,ENE,63,5.0,7.0,15,0.00,CLR,,0.00,WeatherDisplay:10.37,2013-06-05 22:10:00,
2013-06-05 18:15:00,79.9,28.1,28.97,ENE,68,3.0,7.0,15,0.00,CLR,,0.00,WeatherDisplay:10.37,2013-06-05 22:15:00,
2013-06-05 18:20:00,80.2,28.4,28.97,East,79,3.0,5.0,15,0.00,CLR,,0.00,WeatherDisplay:10.37,2013-06-05 22:20:00,
2013-06-05 18:25:00,80.5,28.6,28.94,East,80,2.0,6.0,15,0.00,CLR,,0.00,WeatherDisplay:10.37,2013-06-05 22:25:00,
2013-06-05 18:30:00,80.3,28.4,28.94,ENE,74,5.0,6.0,15,0.00,CLR,,0.00,WeatherDisplay:10.37,2013-06-05 22:30:00,
2013-06-05 18:35:00,80.1,28.2,28.94,East,90,5.0,6.0,15,0.00,CLR,,0.00,WeatherDisplay:10.37,2013-06-05 22:35:00,
2013-06-05 18:40:00,79.5,27.7,28.94,East,82,5.0,6.0,15,0.00,CLR,,0.00,WeatherDisplay:10.37,2013-06-05 22:40:00,
2013-06-05 18:45:00,79.5,27.8,28.94,ENE,68,1.0,5.0,15,0.00,CLR,,0.00,WeatherDisplay:10.37,2013-06-05 22:45:00,
2013-06-05 18:50:00,79.9,28.1,28.94,ENE,70,2.0,6.0,15,0.00,CLR,,0.00,WeatherDisplay:10.37,2013-06-05 22:50:00,
2013-06-05 18:55:00,80.1,28.2,28.94,ENE,74,0.0,4.0,15,0.00,CLR,,0.00,WeatherDisplay:10.37,2013-06-05 22:55:00,
2013-06-05 19:00:00,80.1,28.2,28.94,ENE,71,3.0,5.0,15,0.00,CLR,,0.00,WeatherDisplay:10.37,2013-06-05 23:00:00,
2013-06-05 19:05:00,79.9,28.1,28.94,ENE,65,5.0,7.0,15,0.00,CLR,,0.00,WeatherDisplay:10.37,2013-06-05 23:05:00,
2013-06-05 19:10:00,79.7,27.9,28.94,ENE,65,5.0,6.0,15,0.00,CLR,,0.00,WeatherDisplay:10.37,2013-06-05 23:10:00,
2013-06-05 19:15:00,79.5,27.8,28.94,ENE,71,3.0,6.0,15,0.00,CLR,,0.00,WeatherDisplay:10.37,2013-06-05 23:15:00,
2013-06-05 19:20:00,79.0,27.4,28.94,ENE,63,5.0,6.0,15,0.00,CLR,,0.00,WeatherDisplay:10.37,2013-06-05 23:20:00,
2013-06-05 19:25:00,78.6,27.1,28.94,ENE,60,3.0,6.0,15,0.00,CLR,,0.00,WeatherDisplay:10.37,2013-06-05 23:25:00,
2013-06-05 19:30:00,78.4,26.9,28.94,ENE,63,3.0,6.0,15,0.00,CLR,,0.00,WeatherDisplay:10.37,2013-06-05 23:30:00,
2013-06-05 19:35:00,79.2,27.5,28.94,ENE,62,2.0,4.0,15,0.00,CLR,,0.00,WeatherDisplay:10.37,2013-06-05 23:35:00,
2013-06-05 19:40:00,79.0,27.4,28.94,ENE,66,3.0,6.0,15,0.00,CLR,,0.00,WeatherDisplay:10.37,2013-06-05 23:40:00,
2013-06-05 19:45:00,78.6,27.1,28.94,ENE,63,2.0,4.0,15,0.00,CLR,,0.00,WeatherDisplay:10.37,2013-06-05 23:45:00,
2013-06-05 19:50:00,78.3,26.8,28.94,ENE,63,2.0,5.0,15,0.00,CLR,,0.00,WeatherDisplay:10.37,2013-06-05 23:50:00,
2013-06-05 19:55:00,78.3,26.8,28.94,ENE,62,0.0,4.0,15,0.00,CLR,,0.00,WeatherDisplay:10.37,2013-06-05 23:55:00,
2013-06-05 20:00:00,78.6,27.1,28.94,ENE,64,0.0,3.0,15,0.00,CLR,,0.00,WeatherDisplay:10.37,2013-06-06 00:00:00,
2013-06-05 20:05:00,79.0,27.4,28.94,ENE,67,3.0,6.0,15,0.00,CLR,,0.00,WeatherDisplay:10.37,2013-06-06 00:05:00,
2013-06-05 20:10:00,79.5,27.8,28.94,ENE,67,2.0,4.0,15,0.00,CLR,,0.00,WeatherDisplay:10.37,2013-06-06 00:10:00,
2013-06-05 20:15:00,79.3,27.6,28.94,ENE,68,0.0,4.0,15,0.00,CLR,,0.00,WeatherDisplay:10.37,2013-06-06 00:15:00,
2013-06-05 20:20:00,79.0,27.3,28.94,ENE,65,0.0,3.0,15,0.00,CLR,,0.00,WeatherDisplay:10.37,2013-06-06 00:20:00,
2013-06-05 20:25:00,78.6,27.1,28.94,ENE,62,0.0,3.0,15,0.00,CLR,,0.00,WeatherDisplay:10.37,2013-06-06 00:25:00,
2013-06-05 20:30:00,78.4,26.9,28.94,ENE,63,0.0,3.0,15,0.00,CLR,,0.00,WeatherDisplay:10.37,2013-06-06 00:30:00,
2013-06-05 20:35:00,78.2,26.8,28.94,ENE,67,0.0,2.0,15,0.00,CLR,,0.00,WeatherDisplay:10.37,2013-06-06 00:35:00,
2013-06-05 20:40:00,77.3,26.0,28.94,ENE,67,0.0,4.0,15,0.00,CLR,,0.00,WeatherDisplay:10.37,2013-06-06 00:40:00,
2013-06-05 20:45:00,76.6,25.4,28.94,ENE,67,0.0,3.0,15,0.00,CLR,,0.00,WeatherDisplay:10.37,2013-06-06 00:45:00,
2013-06-05 20:50:00,75.7,24.8,28.94,ENE,63,0.0,4.0,15,0.00,CLR,,0.00,WeatherDisplay:10.37,2013-06-06 00:50:00,
2013-06-05 20:55:00,75.1,25.8,28.94,ENE,62,0.0,0.0,16,0.00,CLR,,0.00,WeatherDisplay:10.37,2013-06-06 00:55:00,
2013-06-05 21:00:00,74.5,25.3,28.94,ENE,68,1.0,4.0,16,0.00,CLR,,0.00,WeatherDisplay:10.37,2013-06-06 01:00:00,
2013-06-05 21:05:00,73.8,24.8,28.94,ENE,67,0.0,4.0,16,0.00,CLR,,0.00,WeatherDisplay:10.37,2013-06-06 01:05:00,
2013-06-05 21:10:00,73.3,24.3,28.94,ENE,68,5.0,10.0,16,0.00,CLR,,0.00,WeatherDisplay:10.37,2013-06-06 01:10:00,
2013-06-05 21:15:00,72.6,23.8,28.94,ENE,62,3.0,10.0,16,0.00,CLR,,0.00,WeatherDisplay:10.37,2013-06-06 01:15:00,
2013-06-05 21:20:00,71.8,23.2,28.94,ENE,60,7.0,14.0,16,0.00,CLR,,0.00,WeatherDisplay:10.37,2013-06-06 01:20:00,
2013-06-05 21:25:00,71.2,24.1,28.94,ENE,59,8.0,11.0,17,0.00,CLR,,0.00,WeatherDisplay:10.37,2013-06-06 01:25:00,
2013-06-05 21:30:00,70.7,23.7,28.94,ENE,59,8.0,13.0,17,0.00,CLR,,0.00,WeatherDisplay:10.37,2013-06-06 01:30:00,
2013-06-05 21:35:00,70.3,23.4,28.94,NE,55,9.0,13.0,17,0.00,CLR,,0.00,WeatherDisplay:10.37,2013-06-06 01:35:00,
2013-06-05 21:40:00,69.8,23.0,28.94,ENE,61,6.0,11.0,17,0.00,CLR,,0.00,WeatherDisplay:10.37,2013-06-06 01:40:00,
2013-06-05 21:45:00,69.3,22.5,28.94,ENE,66,7.0,9.0,17,0.00,CLR,,0.00,WeatherDisplay:10.37,2013-06-06 01:45:00,
2013-06-05 21:50:00,69.1,22.4,28.94,ENE,67,6.0,12.0,17,0.00,CLR,,0.00,WeatherDisplay:10.37,2013-06-06 01:50:00,
2013-06-05 21:55:00,68.9,22.2,28.94,ENE,67,5.0,10.0,17,0.00,CLR,,0.00,WeatherDisplay:10.37,2013-06-06 01:55:00,
2013-06-05 22:00:00,68.5,21.9,28.94,ENE,66,5.0,7.0,17,0.00,CLR,,0.00,WeatherDisplay:10.37,2013-06-06 02:00:00,
2013-06-05 22:05:00,68.2,21.7,28.94,ENE,67,5.0,8.0,17,0.00,CLR,,0.00,WeatherDisplay:10.37,2013-06-06 02:05:00,
2013-06-05 22:10:00,68.0,21.5,28.95,ENE,66,5.0,8.0,17,0.00,CLR,,0.00,WeatherDisplay:10.37,2013-06-06 02:10:00,
2013-06-05 22:15:00,67.8,21.4,28.97,ENE,67,6.0,9.0,17,0.00,CLR,,0.00,WeatherDisplay:10.37,2013-06-06 02:15:00,
2013-06-05 22:20:00,67.6,21.2,28.97,ENE,66,6.0,9.0,17,0.00,CLR,,0.00,WeatherDisplay:10.37,2013-06-06 02:20:00,
2013-06-05 22:25:00,67.5,21.1,28.97,ENE,63,7.0,11.0,17,0.00,CLR,,0.00,WeatherDisplay:10.37,2013-06-06 02:25:00,
2013-06-05 22:30:00,67.3,20.9,28.97,ENE,67,7.0,9.0,17,0.00,CLR,,0.00,WeatherDisplay:10.37,2013-06-06 02:30:00,
2013-06-05 22:35:00,67.0,20.7,28.97,ENE,68,5.0,8.0,17,0.00,CLR,,0.00,WeatherDisplay:10.37,2013-06-06 02:35:00,
2013-06-05 22:40:00,66.7,20.5,28.97,ENE,66,6.0,8.0,17,0.00,CLR,,0.00,WeatherDisplay:10.37,2013-06-06 02:40:00,
2013-06-05 22:45:00,66.2,20.1,28.97,ENE,66,5.0,6.0,17,0.00,CLR,,0.00,WeatherDisplay:10.37,2013-06-06 02:45:00,
2013-06-05 22:50:00,66.0,21.2,28.97,ENE,69,5.0,8.0,18,0.00,CLR,,0.00,WeatherDisplay:10.37,2013-06-06 02:50:00,
2013-06-05 22:55:00,65.8,21.1,28.97,ENE,71,3.0,8.0,18,0.00,CLR,,0.00,WeatherDisplay:10.37,2013-06-06 02:55:00,
2013-06-05 23:00:00,65.5,20.8,28.97,ENE,68,3.0,6.0,18,0.00,CLR,,0.00,WeatherDisplay:10.37,2013-06-06 03:00:00,
2013-06-05 23:10:00,65.3,20.6,28.97,ENE,70,3.0,6.0,18,0.00,CLR,,0.00,WeatherDisplay:10.37,2013-06-06 03:10:00,
2013-06-05 23:15:00,65.1,20.5,28.97,ENE,69,5.0,7.0,18,0.00,CLR,,0.00,WeatherDisplay:10.37,2013-06-06 03:15:00,
2013-06-05 23:20:00,64.9,20.4,28.97,ENE,73,6.0,6.0,18,0.00,CLR,,0.00,WeatherDisplay:10.37,2013-06-06 03:20:00,
2013-06-05 23:25:00,64.9,20.4,28.97,ENE,69,5.0,11.0,18,0.00,CLR,,0.00,WeatherDisplay:10.37,2013-06-06 03:25:00,
2013-06-05 23:30:00,64.9,20.4,28.97,ENE,66,6.0,8.0,18,0.00,CLR,,0.00,WeatherDisplay:10.37,2013-06-06 03:30:00,
2013-06-05 23:35:00,64.8,20.2,28.97,ENE,65,5.0,8.0,18,0.00,CLR,,0.00,WeatherDisplay:10.37,2013-06-06 03:35:00,
2013-06-05 23:40:00,64.6,20.1,28.97,ENE,64,5.0,8.0,18,0.00,CLR,,0.00,WeatherDisplay:10.37,2013-06-06 03:40:00,
2013-06-05 23:50:00,64.2,19.8,28.97,ENE,68,7.0,8.0,18,0.00,CLR,,0.00,WeatherDisplay:10.37,2013-06-06 03:50:00,
2013-06-05 23:55:00,64.2,19.8,28.94,ENE,61,6.0,8.0,18,0.00,CLR,,0.00,WeatherDisplay:10.37,2013-06-06 03:55:00,